| time (UTC) | temp F | wind direction | speed knots | gust knots | rain 1hr in | rain 24hr in | rain mn in | humidity % | barometer mb |
| 20260901115138 | 61 | 345 | 1.7 | 2.6 | 0.00 | 0.00 | 0.00 | 89 | 1013.1 |
| 20260901114632 | 61 | 323 | 0.9 | 2.6 | 0.00 | 0.00 | 0.00 | 89 | 1013.1 |
| 20260901114125 | 61 | 328 | 1.7 | 2.6 | 0.00 | 0.00 | 0.00 | 89 | 1013.1 |
| 20260901113618 | 61 | 328 | 1.7 | 2.6 | 0.00 | 0.00 | 0.00 | 89 | 1013.1 |
| 20260901113112 | 61 | 333 | 0.0 | 0.9 | 0.00 | 0.00 | 0.00 | 89 | 1013.1 |
| 20260901112607 | 61 | 333 | 0.9 | 0.9 | 0.00 | 0.00 | 0.00 | 89 | 1013.1 |
| 20260901112059 | 61 | 331 | 0.9 | 1.7 | 0.00 | 0.00 | 0.00 | 89 | 1013.1 |
| 20260901111553 | 62 | 332 | 0.0 | 1.7 | 0.00 | 0.00 | 0.00 | 89 | 1013.1 |
| 20260901111046 | 62 | 332 | 0.0 | 0.9 | 0.00 | 0.00 | 0.00 | 89 | 1013.1 |
| 20260901110033 | 62 | 329 | 0.9 | 1.7 | 0.00 | 0.00 | 0.00 | 89 | 1013.1 |
| 20260901105021 | 62 | 341 | 0.9 | 1.7 | 0.00 | 0.00 | 0.00 | 89 | 1013.1 |
| 20260901104513 | 62 | 339 | 0.9 | 1.7 | 0.00 | 0.00 | 0.00 | 89 | 1013.1 |
| 20260901104007 | 62 | 334 | 0.9 | 1.7 | 0.00 | 0.00 | 0.00 | 89 | 1013.1 |
| 20260901102954 | 62 | 327 | 0.9 | 0.9 | 0.00 | 0.00 | 0.00 | 89 | 1013.1 |
| 20260901102447 | 62 | 317 | 0.0 | 0.9 | 0.00 | 0.00 | 0.00 | 89 | 1013.1 |
| 20260901101941 | 62 | 307 | 0.0 | 0.9 | 0.00 | 0.00 | 0.00 | 89 | 1013.1 |
| 20260901100928 | 62 | 324 | 0.0 | 1.7 | 0.00 | 0.00 | 0.00 | 89 | 1013.1 |
| 20260901100421 | 62 | 329 | 0.9 | 2.6 | 0.00 | 0.00 | 0.00 | 89 | 1013.1 |
| 20260901095409 | 62 | 343 | 1.7 | 3.5 | 0.00 | 0.00 | 0.00 | 88 | 1013.4 |
| 20260901094903 | 62 | 332 | 1.7 | 2.6 | 0.00 | 0.00 | 0.00 | 88 | 1013.4 |
| 20260901094355 | 62 | 321 | 1.7 | 2.6 | 0.00 | 0.00 | 0.00 | 88 | 1013.4 |
| 20260901093849 | 62 | 316 | 1.7 | 2.6 | 0.00 | 0.00 | 0.00 | 88 | 1013.4 |
| 20260901093343 | 62 | 317 | 1.7 | 2.6 | 0.00 | 0.00 | 0.00 | 88 | 1013.4 |
| 20260901092836 | 63 | 344 | 1.7 | 2.6 | 0.00 | 0.00 | 0.00 | 88 | 1013.1 |
| 20260901091823 | 62 | 306 | 0.0 | 1.7 | 0.00 | 0.00 | 0.00 | 88 | 1013.1 |
| 20260901091316 | 62 | 337 | 0.0 | 1.7 | 0.00 | 0.00 | 0.00 | 88 | 1013.4 |
| 20260901090810 | 62 | 318 | 0.0 | 1.7 | 0.00 | 0.00 | 0.00 | 87 | 1013.4 |
| 20260901090304 | 63 | 324 | 0.0 | 0.9 | 0.00 | 0.00 | 0.00 | 87 | 1013.4 |
| 20260901085758 | 63 | 310 | 0.0 | 0.9 | 0.00 | 0.00 | 0.00 | 87 | 1013.4 |
| 20260901085250 | 63 | 319 | 0.9 | 0.9 | 0.00 | 0.00 | 0.00 | 88 | 1013.4 |
| 20260901084744 | 63 | 320 | 0.9 | 0.9 | 0.00 | 0.00 | 0.00 | 87 | 1013.4 |
| 20260901084238 | 63 | 306 | 0.0 | 1.7 | 0.00 | 0.00 | 0.00 | 87 | 1013.4 |
| 20260901082718 | 63 | 327 | 0.9 | 2.6 | 0.00 | 0.00 | 0.00 | 87 | 1013.4 |
| 20260901082211 | 63 | 328 | 1.7 | 2.6 | 0.00 | 0.00 | 0.00 | 87 | 1013.4 |
| 20260901081705 | 63 | 306 | 0.9 | 2.6 | 0.00 | 0.00 | 0.00 | 87 | 1013.4 |
| 20260901081159 | 63 | 318 | 1.7 | 1.7 | 0.00 | 0.00 | 0.00 | 86 | 1013.4 |
| 20260901080652 | 63 | 332 | 0.9 | 2.6 | 0.00 | 0.00 | 0.00 | 87 | 1013.4 |
| 20260901080145 | 63 | 312 | 0.9 | 2.6 | 0.00 | 0.00 | 0.00 | 86 | 1013.4 |
| 20260901075639 | 63 | 320 | 0.9 | 1.7 | 0.00 | 0.00 | 0.00 | 86 | 1013.4 |
| 20260901075133 | 64 | 328 | 0.9 | 1.7 | 0.00 | 0.00 | 0.00 | 86 | 1013.4 |
| 20260901074120 | 64 | 319 | 0.9 | 1.7 | 0.00 | 0.00 | 0.00 | 86 | 1013.4 |
| 20260901073614 | 64 | 322 | 0.0 | 1.7 | 0.00 | 0.00 | 0.00 | 86 | 1013.4 |
| 20260901073107 | 64 | 343 | 0.0 | 1.7 | 0.00 | 0.00 | 0.00 | 86 | 1013.4 |
| 20260901072601 | 64 | 327 | 0.9 | 1.7 | 0.00 | 0.00 | 0.00 | 86 | 1013.4 |
| 20260901072054 | 64 | 322 | 0.9 | 1.7 | 0.00 | 0.00 | 0.00 | 86 | 1013.4 |
| 20260901071547 | 64 | 323 | 0.0 | 0.9 | 0.00 | 0.00 | 0.00 | 86 | 1013.4 |
| 20260901071041 | 64 | 322 | 0.9 | 1.7 | 0.00 | 0.00 | 0.00 | 86 | 1013.4 |
| 20260901070535 | 64 | 323 | 0.0 | 1.7 | 0.00 | 0.00 | 0.00 | 85 | 1013.4 |
| 20260901070029 | 64 | 322 | 0.9 | 0.9 | 0.00 | 0.00 | 0.00 | 85 | 1013.4 |
| 20260901065521 | 64 | 325 | 0.0 | 1.7 | 0.00 | 0.00 | 0.00 | 85 | 1013.1 |
| 20260901065015 | 64 | 319 | 0.9 | 1.7 | 0.00 | 0.00 | 0.00 | 85 | 1013.1 |
| 20260901064510 | 64 | 319 | 0.0 | 0.9 | 0.00 | 0.00 | 0.00 | 85 | 1013.1 |
| 20260901064002 | 64 | 315 | 0.9 | 0.9 | 0.00 | 0.00 | 0.00 | 85 | 1013.1 |
| 20260901063456 | 64 | 314 | 0.0 | 0.9 | 0.00 | 0.00 | 0.00 | 85 | 1013.1 |
| 20260901062949 | 64 | 317 | 0.9 | 1.7 | 0.00 | 0.00 | 0.00 | 85 | 1012.8 |
| 20260901061936 | 64 | 321 | 0.9 | 1.7 | 0.00 | 0.00 | 0.00 | 84 | 1012.8 |
| 20260901061430 | 65 | 306 | 0.0 | 2.6 | 0.00 | 0.00 | 0.00 | 84 | 1012.8 |
| 20260901060416 | 65 | 316 | 1.7 | 1.7 | 0.00 | 0.00 | 0.00 | 84 | 1012.8 |
| 20260901055910 | 65 | 319 | 0.9 | 1.7 | 0.00 | 0.00 | 0.00 | 84 | 1012.8 |
| 20260901055404 | 65 | 319 | 0.0 | 0.9 | 0.00 | 0.00 | 0.00 | 84 | 1012.8 |
| 20260901054857 | 65 | 318 | 0.0 | 0.9 | 0.00 | 0.00 | 0.00 | 84 | 1012.8 |
| 20260901054355 | 65 | 318 | 0.0 | 1.7 | 0.00 | 0.00 | 0.00 | 84 | 1012.8 |
| 20260901052831 | 65 | 322 | 0.9 | 1.7 | 0.00 | 0.00 | 0.00 | 84 | 1012.8 |
| 20260901052325 | 65 | 317 | 0.9 | 1.7 | 0.00 | 0.00 | 0.00 | 83 | 1012.8 |
| 20260901051818 | 65 | 316 | 0.9 | 1.7 | 0.00 | 0.00 | 0.00 | 83 | 1012.8 |
| 20260901051312 | 65 | 314 | 0.9 | 1.7 | 0.00 | 0.00 | 0.00 | 83 | 1012.8 |
| 20260901050259 | 66 | 333 | 1.7 | 1.7 | 0.00 | 0.00 | 0.00 | 83 | 1012.8 |
| 20260901045246 | 66 | 322 | 0.9 | 1.7 | 0.00 | 0.00 | 0.00 | 83 | 1012.8 |
| 20260901044233 | 67 | 292 | 0.9 | 1.7 | 0.00 | 0.00 | 0.00 | 84 | 1012.4 |
| 20260901043727 | 67 | 274 | 0.9 | 1.7 | 0.00 | 0.00 | 0.00 | 84 | 1012.8 |
| 20260901043219 | 67 | 255 | 0.9 | 1.7 | 0.00 | 0.00 | 0.00 | 84 | 1012.4 |
| 20260901042713 | 67 | 240 | 0.9 | 1.7 | 0.00 | 0.00 | 0.00 | 84 | 1012.4 |
| 20260901041700 | 67 | 243 | 0.9 | 0.9 | 0.00 | 0.00 | 0.00 | 84 | 1012.4 |
| 20260901041154 | 67 | 243 | 0.9 | 0.9 | 0.00 | 0.00 | 0.00 | 85 | 1012.1 |
| 20260901040140 | 67 | 244 | 0.0 | 1.7 | 0.00 | 0.00 | 0.00 | 84 | 1011.8 |
| 20260901035634 | 67 | 246 | 0.9 | 1.7 | 0.00 | 0.00 | 0.00 | 84 | 1012.1 |
| 20260901034622 | 67 | 256 | 0.9 | 1.7 | 0.00 | 0.00 | 0.00 | 84 | 1011.8 |
| 20260901033608 | 67 | 287 | 0.0 | 0.9 | 0.00 | 0.00 | 0.00 | 84 | 1011.8 |
| 20260901033102 | 67 | 246 | 0.0 | 1.7 | 0.00 | 0.00 | 0.00 | 84 | 1011.8 |
| 20260901032555 | 67 | 253 | 0.0 | 2.6 | 0.00 | 0.00 | 0.00 | 84 | 1011.8 |
| 20260901032049 | 67 | 251 | 1.7 | 2.6 | 0.00 | 0.00 | 0.00 | 84 | 1011.4 |
| 20260901031542 | 67 | 246 | 0.9 | 2.6 | 0.00 | 0.00 | 0.00 | 83 | 1011.4 |
| 20260901031035 | 67 | 254 | 0.0 | 1.7 | 0.00 | 0.00 | 0.00 | 83 | 1011.4 |
| 20260901030529 | 68 | 257 | 0.9 | 3.5 | 0.00 | 0.00 | 0.00 | 83 | 1011.4 |
| 20260901025010 | 68 | 228 | 3.5 | 7.0 | 0.00 | 0.00 | 0.00 | 83 | 1011.4 |
| 20260901024504 | 68 | 233 | 2.6 | 7.0 | 0.00 | 0.00 | 0.00 | 83 | 1011.4 |
| 20260901023957 | 68 | 260 | 2.6 | 7.0 | 0.00 | 0.00 | 0.00 | 83 | 1011.1 |
| 20260901022437 | 68 | 236 | 3.5 | 7.0 | 0.00 | 0.00 | 0.00 | 82 | 1011.4 |
| 20260901021931 | 68 | 220 | 1.7 | 9.6 | 0.00 | 0.00 | 0.00 | 82 | 1011.4 |
| 20260901021424 | 69 | 233 | 5.2 | 9.6 | 0.00 | 0.00 | 0.00 | 82 | 1011.4 |
| 20260901020412 | 69 | 221 | 5.2 | 7.8 | 0.00 | 0.00 | 0.00 | 80 | 1011.4 |
| 20260901015905 | 69 | 244 | 4.3 | 8.7 | 0.00 | 0.00 | 0.00 | 80 | 1011.4 |
| 20260901015358 | 70 | 346 | 3.5 | 8.7 | 0.00 | 0.00 | 0.00 | 80 | 1011.4 |
| 20260901014851 | 70 | 234 | 6.1 | 9.6 | 0.00 | 0.00 | 0.00 | 79 | 1011.4 |
| 20260901014345 | 71 | 242 | 7.8 | 9.6 | 0.00 | 0.00 | 0.00 | 78 | 1011.4 |
| 20260901013839 | 71 | 259 | 6.1 | 8.7 | 0.00 | 0.00 | 0.00 | 79 | 1011.4 |
| 20260901013331 | 71 | 256 | 4.3 | 8.7 | 0.00 | 0.00 | 0.00 | 78 | 1011.4 |
| 20260901012825 | 71 | 265 | 7.8 | 11.3 | 0.00 | 0.00 | 0.00 | 77 | 1011.4 |
| 20260901012319 | 71 | 230 | 9.6 | 11.3 | 0.00 | 0.00 | 0.00 | 76 | 1011.4 |
| 20260901011812 | 71 | 229 | 4.3 | 9.6 | 0.00 | 0.00 | 0.00 | 77 | 1011.4 |
| 20260901011306 | 71 | 252 | 3.5 | 9.6 | 0.00 | 0.00 | 0.00 | 77 | 1011.4 |
| 20260901010800 | 71 | 258 | 6.1 | 9.6 | 0.00 | 0.00 | 0.00 | 76 | 1011.4 |
| 20260901005746 | 72 | 212 | 5.2 | 9.6 | 0.00 | 0.00 | 0.00 | 76 | 1011.4 |
| 20260901005240 | 72 | 317 | 5.2 | 9.6 | 0.00 | 0.00 | 0.00 | 78 | 1011.8 |
| 20260901004733 | 72 | 234 | 5.2 | 9.6 | 0.00 | 0.00 | 0.00 | 76 | 1011.4 |
| 20260901004227 | 73 | 253 | 6.1 | 9.6 | 0.00 | 0.00 | 0.00 | 76 | 1011.4 |
| 20260901003720 | 73 | 262 | 3.5 | 9.6 | 0.00 | 0.00 | 0.00 | 76 | 1011.4 |
| 20260901003213 | 73 | 226 | 4.3 | 9.6 | 0.00 | 0.00 | 0.00 | 76 | 1011.4 |
| 20260901002707 | 73 | 233 | 7.8 | 12.2 | 0.00 | 0.00 | 0.00 | 76 | 1011.4 |
| 20260901001147 | 73 | 238 | 7.8 | 12.2 | 0.00 | 0.00 | 0.00 | 75 | 1011.8 |
| 20260901000641 | 73 | 251 | 9.6 | 11.3 | 0.00 | 0.00 | 0.00 | 75 | 1011.8 |
| 20260901000134 | 73 | 258 | 6.1 | 11.3 | 0.00 | 0.00 | 0.00 | 75 | 1011.8 |
| 20260831235122 | 73 | 235 | 4.3 | 11.3 | 0.00 | 0.00 | 0.00 | 76 | 1011.8 |
| 20260831234614 | 73 | 128 | 6.1 | 11.3 | 0.00 | 0.00 | 0.00 | 75 | 1011.8 |
| 20260831233602 | 74 | 224 | 6.1 | 12.2 | 0.00 | 0.00 | 0.00 | 73 | 1011.8 |
| 20260831233055 | 75 | 240 | 5.2 | 12.2 | 0.00 | 0.00 | 0.00 | 71 | 1011.8 |
| 20260831232549 | 75 | 231 | 9.6 | 12.2 | 0.00 | 0.00 | 0.00 | 68 | 1011.4 |
| 20260831232043 | 75 | 274 | 6.1 | 11.3 | 0.00 | 0.00 | 0.00 | 69 | 1011.4 |
| 20260831231029 | 74 | 259 | 7.8 | 12.2 | 0.00 | 0.00 | 0.00 | 71 | 1011.4 |
| 20260831230524 | 75 | 233 | 9.6 | 12.2 | 0.00 | 0.00 | 0.00 | 71 | 1011.4 |
| 20260831230016 | 74 | 255 | 7.8 | 12.2 | 0.00 | 0.00 | 0.00 | 71 | 1011.8 |
| 20260831225510 | 75 | 204 | 7.0 | 12.2 | 0.00 | 0.00 | 0.00 | 70 | 1011.8 |
| 20260831225003 | 75 | 251 | 9.6 | 12.2 | 0.00 | 0.00 | 0.00 | 69 | 1011.8 |
| 20260831224457 | 75 | 221 | 9.6 | 12.2 | 0.00 | 0.00 | 0.00 | 68 | 1011.8 |
| 20260831222937 | 76 | 247 | 8.7 | 11.3 | 0.00 | 0.00 | 0.00 | 62 | 1011.8 |
| 20260831222431 | 75 | 221 | 8.7 | 9.6 | 0.00 | 0.00 | 0.00 | 65 | 1011.8 |
| 20260831221924 | 76 | 230 | 6.1 | 13.0 | 0.00 | 0.00 | 0.00 | 68 | 1012.1 |
| 20260831221418 | 75 | 258 | 6.1 | 13.0 | 0.00 | 0.00 | 0.00 | 70 | 1012.1 |
| 20260831220911 | 75 | 250 | 7.0 | 13.0 | 0.00 | 0.00 | 0.00 | 71 | 1012.1 |
| 20260831220405 | 76 | 230 | 10.4 | 12.2 | 0.00 | 0.00 | 0.00 | 69 | 1012.1 |
| 20260831215858 | 76 | 243 | 5.2 | 12.2 | 0.00 | 0.00 | 0.00 | 69 | 1012.1 |
| 20260831215352 | 76 | 258 | 8.7 | 12.2 | 0.00 | 0.00 | 0.00 | 67 | 1012.1 |
| 20260831214844 | 76 | 212 | 7.8 | 11.3 | 0.00 | 0.00 | 0.00 | 67 | 1012.1 |
| 20260831214338 | 76 | 236 | 7.0 | 12.2 | 0.00 | 0.00 | 0.00 | 69 | 1012.1 |
| 20260831213832 | 76 | 234 | 3.5 | 12.2 | 0.00 | 0.00 | 0.00 | 67 | 1012.1 |
| 20260831213325 | 76 | 192 | 7.0 | 12.2 | 0.00 | 0.00 | 0.00 | 70 | 1012.4 |
| 20260831212819 | 76 | 283 | 1.7 | 11.3 | 0.00 | 0.00 | 0.00 | 72 | 1012.4 |
| 20260831212313 | 77 | 227 | 6.1 | 9.6 | 0.00 | 0.00 | 0.00 | 70 | 1012.4 |
| 20260831211805 | 76 | 245 | 3.5 | 11.3 | 0.00 | 0.00 | 0.00 | 70 | 1012.4 |
| 20260831211259 | 77 | 236 | 7.0 | 11.3 | 0.00 | 0.00 | 0.00 | 71 | 1012.4 |
| 20260831210753 | 76 | 257 | 6.1 | 11.3 | 0.00 | 0.00 | 0.00 | 70 | 1012.4 |
| 20260831210246 | 76 | 234 | 7.0 | 11.3 | 0.00 | 0.00 | 0.00 | 72 | 1012.4 |
| 20260831205233 | 76 | 224 | 7.8 | 12.2 | 0.00 | 0.00 | 0.00 | 72 | 1012.4 |
| 20260831204727 | 76 | 210 | 5.2 | 12.2 | 0.00 | 0.00 | 0.00 | 72 | 1012.4 |
| 20260831204219 | 75 | 195 | 8.7 | 12.2 | 0.00 | 0.00 | 0.00 | 72 | 1012.4 |
| 20260831203713 | 75 | 269 | 8.7 | 13.0 | 0.00 | 0.00 | 0.00 | 72 | 1012.4 |
| 20260831203207 | 76 | 225 | 9.6 | 13.0 | 0.00 | 0.00 | 0.00 | 72 | 1012.4 |
| 20260831201140 | 76 | 212 | 6.1 | 12.2 | 0.00 | 0.00 | 0.00 | 71 | 1012.4 |
| 20260831200634 | 76 | 242 | 5.2 | 12.2 | 0.00 | 0.00 | 0.00 | 71 | 1012.4 |
| 20260831195114 | 76 | 261 | 6.1 | 11.3 | 0.00 | 0.00 | 0.00 | 71 | 1012.8 |
| 20260831194608 | 76 | 248 | 4.3 | 11.3 | 0.00 | 0.00 | 0.00 | 71 | 1012.8 |
| 20260831194102 | 76 | 322 | 5.2 | 11.3 | 0.00 | 0.00 | 0.00 | 72 | 1012.8 |
| 20260831193554 | 77 | 250 | 2.6 | 8.7 | 0.00 | 0.00 | 0.00 | 70 | 1012.8 |
| 20260831192542 | 76 | 249 | 7.8 | 9.6 | 0.00 | 0.00 | 0.00 | 71 | 1012.8 |
| 20260831192035 | 76 | 292 | 6.1 | 9.6 | 0.00 | 0.00 | 0.00 | 72 | 1012.8 |
| 20260831191529 | 76 | 234 | 7.0 | 8.7 | 0.00 | 0.00 | 0.00 | 73 | 1013.1 |
| 20260831190516 | 76 | 246 | 6.1 | 9.6 | 0.00 | 0.00 | 0.00 | 73 | 1013.1 |
| 20260831190009 | 76 | 233 | 6.1 | 11.3 | 0.00 | 0.00 | 0.00 | 72 | 1013.1 |
| 20260831185502 | 75 | 229 | 4.3 | 12.2 | 0.00 | 0.00 | 0.00 | 74 | 1012.8 |
| 20260831184956 | 75 | 222 | 6.1 | 12.2 | 0.00 | 0.00 | 0.00 | 75 | 1013.1 |
| 20260831184450 | 75 | 244 | 4.3 | 7.8 | 0.00 | 0.00 | 0.00 | 74 | 1012.8 |
| 20260831183943 | 75 | 215 | 4.3 | 11.3 | 0.00 | 0.00 | 0.00 | 75 | 1012.8 |
| 20260831183437 | 75 | 191 | 6.1 | 11.3 | 0.00 | 0.00 | 0.00 | 73 | 1013.1 |
| 20260831182930 | 75 | 228 | 7.0 | 7.8 | 0.00 | 0.00 | 0.00 | 74 | 1013.1 |
| 20260831181917 | 75 | 191 | 7.0 | 9.6 | 0.00 | 0.00 | 0.00 | 74 | 1013.1 |
| 20260831181410 | 75 | 252 | 7.8 | 9.6 | 0.00 | 0.00 | 0.00 | 73 | 1012.8 |
| 20260831180904 | 75 | 227 | 5.2 | 11.3 | 0.00 | 0.00 | 0.00 | 74 | 1013.1 |
| 20260831180357 | 75 | 207 | 3.5 | 11.3 | 0.00 | 0.00 | 0.00 | 73 | 1013.1 |
| 20260831175851 | 75 | 265 | 2.6 | 7.0 | 0.00 | 0.00 | 0.00 | 74 | 1013.1 |
| 20260831175345 | 75 | 281 | 6.1 | 7.0 | 0.00 | 0.00 | 0.00 | 74 | 1013.1 |
| 20260831174837 | 75 | 244 | 2.6 | 7.0 | 0.00 | 0.00 | 0.00 | 74 | 1013.1 |
| 20260831174331 | 75 | 223 | 1.7 | 7.8 | 0.00 | 0.00 | 0.00 | 74 | 1013.1 |
| 20260831173825 | 76 | 255 | 6.1 | 7.8 | 0.00 | 0.00 | 0.00 | 73 | 1013.1 |
| 20260831173319 | 75 | 310 | 1.7 | 7.8 | 0.00 | 0.00 | 0.00 | 73 | 1013.1 |
| 20260831172811 | 75 | 255 | 2.6 | 7.8 | 0.00 | 0.00 | 0.00 | 75 | 1013.1 |
| 20260831172306 | 74 | 236 | 2.6 | 11.3 | 0.00 | 0.00 | 0.00 | 75 | 1013.1 |
| 20260831171759 | 74 | 264 | 1.7 | 11.3 | 0.00 | 0.00 | 0.00 | 76 | 1013.1 |
| 20260831171252 | 74 | 222 | 5.2 | 8.7 | 0.00 | 0.00 | 0.00 | 75 | 1012.8 |
| 20260831170745 | 74 | 257 | 6.1 | 8.7 | 0.00 | 0.00 | 0.00 | 76 | 1013.1 |
| 20260831165733 | 74 | 201 | 5.2 | 7.8 | 0.00 | 0.00 | 0.00 | 76 | 1012.8 |
| 20260831165226 | 74 | 240 | 4.3 | 8.7 | 0.00 | 0.00 | 0.00 | 75 | 1012.8 |
| 20260831164719 | 76 | 234 | 7.8 | 8.7 | 0.00 | 0.00 | 0.00 | 71 | 1012.8 |
| 20260831164214 | 75 | 316 | 0.9 | 3.5 | 0.00 | 0.00 | 0.00 | 72 | 1012.8 |
| 20260831163707 | 75 | 245 | 0.9 | 7.8 | 0.00 | 0.00 | 0.00 | 72 | 1012.4 |
| 20260831163159 | 75 | 185 | 2.6 | 7.8 | 0.00 | 0.00 | 0.00 | 72 | 1012.8 |
| 20260831162653 | 75 | 207 | 2.6 | 5.2 | 0.00 | 0.00 | 0.00 | 72 | 1012.4 |
| 20260831162147 | 74 | 187 | 3.5 | 7.0 | 0.00 | 0.00 | 0.00 | 72 | 1012.4 |
| 20260831161640 | 74 | 182 | 4.3 | 7.0 | 0.00 | 0.00 | 0.00 | 72 | 1012.4 |
| 20260831161134 | 74 | 169 | 3.5 | 6.1 | 0.00 | 0.00 | 0.00 | 71 | 1012.4 |
| 20260831160627 | 75 | 173 | 3.5 | 6.1 | 0.00 | 0.00 | 0.00 | 70 | 1012.4 |
| 20260831160121 | 75 | 219 | 1.7 | 2.6 | 0.00 | 0.00 | 0.00 | 70 | 1012.4 |
| 20260831155615 | 74 | 53 | 1.7 | 5.2 | 0.00 | 0.00 | 0.00 | 72 | 1012.4 |
| 20260831155108 | 75 | 148 | 3.5 | 5.2 | 0.00 | 0.00 | 0.00 | 71 | 1012.4 |
| 20260831154055 | 75 | 111 | 1.7 | 3.5 | 0.00 | 0.00 | 0.00 | 71 | 1012.4 |
| 20260831153548 | 74 | 64 | 1.7 | 3.5 | 0.00 | 0.00 | 0.00 | 71 | 1012.4 |
| 20260831152536 | 74 | 123 | 1.7 | 3.5 | 0.00 | 0.00 | 0.00 | 73 | 1012.4 |
| 20260831152029 | 73 | 220 | 0.9 | 1.7 | 0.00 | 0.00 | 0.00 | 74 | 1012.4 |
| 20260831151523 | 73 | 192 | 1.7 | 1.7 | 0.00 | 0.00 | 0.00 | 75 | 1012.4 |
| 20260831150509 | 71 | 327 | 0.0 | 1.7 | 0.00 | 0.00 | 0.00 | 77 | 1012.4 |
| 20260831150003 | 71 | 327 | 0.9 | 0.9 | 0.00 | 0.00 | 0.00 | 78 | 1012.1 |
| 20260831145456 | 70 | 327 | 0.0 | 0.9 | 0.00 | 0.00 | 0.00 | 79 | 1012.4 |
| 20260831144950 | 69 | 327 | 0.9 | 1.7 | 0.00 | 0.00 | 0.00 | 80 | 1012.1 |
| 20260831143937 | 68 | 327 | 0.9 | 0.9 | 0.00 | 0.00 | 0.00 | 82 | 1012.1 |
| 20260831143430 | 68 | 327 | 0.9 | 1.7 | 0.00 | 0.00 | 0.00 | 83 | 1012.1 |
| 20260831142923 | 67 | 327 | 0.9 | 1.7 | 0.00 | 0.00 | 0.00 | 83 | 1012.1 |
| 20260831141911 | 66 | 327 | 0.9 | 1.7 | 0.00 | 0.00 | 0.00 | 84 | 1011.8 |
| 20260831141404 | 66 | 327 | 0.0 | 0.9 | 0.00 | 0.00 | 0.00 | 85 | 1011.8 |
| 20260831140858 | 66 | 327 | 0.0 | 0.9 | 0.00 | 0.00 | 0.00 | 85 | 1011.8 |
| 20260831135844 | 65 | 327 | 0.0 | 0.9 | 0.00 | 0.00 | 0.00 | 85 | 1011.4 |
| 20260831135338 | 65 | 327 | 0.0 | 0.9 | 0.00 | 0.00 | 0.00 | 85 | 1011.8 |
| 20260831134832 | 65 | 326 | 0.0 | 0.9 | 0.00 | 0.00 | 0.00 | 85 | 1011.4 |
| 20260831134326 | 65 | 326 | 0.9 | 0.9 | 0.00 | 0.00 | 0.00 | 85 | 1011.4 |
| 20260831133819 | 65 | 321 | 0.0 | 0.9 | 0.00 | 0.00 | 0.00 | 85 | 1011.4 |
| 20260831132806 | 65 | 321 | 0.0 | 0.9 | 0.00 | 0.00 | 0.00 | 85 | 1011.1 |
| 20260831132259 | 65 | 321 | 0.9 | 1.7 | 0.00 | 0.00 | 0.00 | 85 | 1011.1 |
| 20260831131753 | 65 | 322 | 0.9 | 2.6 | 0.00 | 0.00 | 0.00 | 85 | 1011.4 |
| 20260831131247 | 65 | 329 | 0.9 | 2.6 | 0.00 | 0.00 | 0.00 | 85 | 1011.4 |
| 20260831130740 | 65 | 316 | 0.9 | 2.6 | 0.00 | 0.00 | 0.00 | 85 | 1011.1 |
| 20260831130233 | 65 | 325 | 0.9 | 2.6 | 0.00 | 0.00 | 0.00 | 85 | 1011.1 |
| 20260831125727 | 65 | 325 | 0.9 | 1.7 | 0.00 | 0.00 | 0.00 | 85 | 1011.1 |
| 20260831125220 | 65 | 319 | 0.9 | 2.6 | 0.00 | 0.00 | 0.00 | 85 | 1011.1 |
| 20260831124714 | 65 | 337 | 1.7 | 2.6 | 0.00 | 0.00 | 0.00 | 85 | 1011.1 |
| 20260831124207 | 65 | 333 | 0.9 | 2.6 | 0.00 | 0.00 | 0.00 | 85 | 1011.1 |
| 20260831123701 | 65 | 325 | 0.9 | 2.6 | 0.00 | 0.00 | 0.00 | 85 | 1011.1 |
| 20260831123154 | 65 | 313 | 1.7 | 2.6 | 0.00 | 0.00 | 0.00 | 85 | 1011.1 |
| 20260831122648 | 66 | 327 | 0.9 | 1.7 | 0.00 | 0.00 | 0.00 | 85 | 1011.1 |
| 20260831122142 | 66 | 317 | 0.9 | 1.7 | 0.00 | 0.00 | 0.00 | 85 | 1011.1 |
| 20260831121128 | 66 | 334 | 1.7 | 1.7 | 0.00 | 0.00 | 0.00 | 85 | 1011.1 |
| 20260831120622 | 66 | 314 | 0.0 | 1.7 | 0.00 | 0.00 | 0.00 | 85 | 1011.1 |
| 20260831120116 | 66 | 320 | 0.9 | 1.7 | 0.00 | 0.00 | 0.00 | 85 | 1011.1 |